Location: Unspecified
(0.0000°N, 0.0000°E)
Time: 11:31:14
(UTC+00:00)

Explorer 11/Cluster Stage 4 - Pass Details

Date: 08 October 2020
Orbit: 467 x 1258 km, 28.8° (Epoch: 28 October)

Event Time Altitude Azimuth Distance (km) Brightness Sun altitude
Rises 17:35:05 0° 264° (W) 2,953 13.2 3.1°
Reaches altitude 10° 17:38:09 10° 281° (W) 1,903 10.3 2.3°
Maximum altitude 17:41:16 19° 328° (NNW) 1,298 8.1 1.5°
Drops below altitude 10° 17:44:05 10° 15° (NNE) 1,691 8.1 0.8°
Sets 17:46:38 0° 34° (NE) 2,511 8.8 0.2°
